Wind_Speed
7 7 7 6 4 3 2 1 1 2 3 4 5 6 7 9 9 9 8 8 9 8 7 7 7 8 8 8 8 8 8 8 8 9 9 9 9 8 8 8 7 6 5 4 4 4 3 3 2
7 8 8 7 5 4 1 1 2 3 5 5 6 7 8 9 8 8 8 9 9 8 8 7 7 8 8 9 9 9 8 8 9 9 9 9 9 9 9 9 8 7 6 5 5 4 3 3 3
7 7 7 7 5 4 2 3 4 6 7 7 7 8 9 9 9 8 9 9 9 9 8 8 8 8 8 9 9 9 9 9 9 10 10 9 9 9 9 9 8 8 7 6 6 5 5 4 3
7 8 7 6 5 4 3 4 5 7 7 8 9 9 9 9 9 8 9 9 10 9 9 9 9 9 9 10 10 10 10 10 10 10 9 9 9 9 9 9 8 8 8 7 7 6 6 5 4
7 7 7 6 4 4 4 5 7 9 9 9 10 11 9 9 9 9 9 9 10 10 10 9 9 9 10 10 10 11 10 10 10 10 10 10 10 10 9 9 9 8 8 8 7 7 6 5 5
7 7 7 6 5 5 6 6 7 10 11 12 12 13 11 11 10 10 10 10 10 10 10 10 9 9 10 10 10 11 11 11 10 10 10 10 10 11 10 9 9 8 7 7 7 6 6 7 6
7 7 8 7 7 6 7 7 8 11 13 14 14 14 13 12 11 10 11 11 11 11 10 10 10 11 10 10 11 10 11 11 11 11 11 11 11 11 11 10 9 8 7 7 7 7 6 6 6
9 8 8 9 8 8 9 9 11 13 13 14 15 15 14 12 11 11 11 12 12 12 11 11 11 11 11 11 11 11 11 12 11 11 11 11 11 11 11 10 9 8 8 8 7 7 7 6 6
11 10 10 11 12 11 11 12 13 13 13 14 15 15 15 13 13 13 12 13 12 12 12 12 12 12 12 12 12 11 11 12 11 10 10 11 11 11 11 10 10 9 8 8 7 7 7 7 7
12 11 12 14 14 15 15 16 15 13 13 15 16 16 16 15 15 14 14 14 14 13 12 12 13 13 13 13 13 12 12 12 11 11 11 11 11 11 11 11 10 10 9 9 8 7 7 8 8
13 12 14 16 16 16 16 16 14 14 13 15 16 16 16 16 16 16 15 15 15 15 14 13 13 13 14 14 13 13 12 11 11 11 11 11 10 10 10 10 11 11 10 10 9 9 8 8 8
13 13 15 17 16 16 16 16 16 15 15 15 15 16 16 17 17 17 17 16 16 16 16 14 14 13 13 13 14 13 12 12 12 11 11 10 10 10 10 11 10 11 11 11 10 10 9 9 9
15 14 16 16 16 15 16 17 16 14 15 15 16 17 18 17 18 18 18 17 17 16 16 16 15 15 14 14 14 13 13 13 13 12 11 11 11 10 11 11 10 11 11 12 11 12 11 10 9
15 16 15 16 16 16 16 15 15 13 15 16 16 17 18 18 18 19 18 18 17 17 17 17 17 16 16 15 16 15 14 14 14 12 12 11 11 11 11 12 11 11 11 12 12 12 12 11 10
15 15 14 14 15 14 14 14 15 14 15 16 17 17 17 18 18 18 18 18 17 17 18 18 18 17 17 17 17 17 16 15 14 13 12 12 12 12 11 12 12 11 11 12 12 12 12 12 11
15 14 14 14 15 14 15 14 15 16 16 17 17 18 18 18 18 18 18 17 18 18 19 19 19 19 18 18 18 17 17 16 15 14 13 12 12 12 12 12 12 12 12 11 12 12 11 11 11
14 14 14 15 15 16 17 17 16 17 17 17 17 18 18 17 18 19 18 18 19 19 19 19 19 19 19 19 18 16 17 16 15 14 13 13 13 13 12 12 12 12 12 12 11 11 11 11 11
14 14 14 15 15 16 17 17 18 18 18 18 17 18 18 18 19 19 19 19 19 20 20 20 20 20 20 19 18 17 16 16 15 14 14 14 14 13 12 12 12 12 12 12 12 11 11 11 12
15 15 15 15 16 17 17 18 17 17 17 18 19 19 19 18 19 19 20 20 19 20 20 20 20 20 20 20 17 16 17 16 15 15 14 14 14 14 13 12 12 13 13 12 12 12 12 12 12
15 15 15 16 17 18 18 17 17 17 18 18 19 20 20 19 20 21 21 20 19 18 19 20 20 19 19 18 18 17 17 16 16 16 15 14 13 13 13 13 13 13 13 12 12 13 13 13 13
16 16 16 17 17 18 20 19 17 17 17 18 19 21 20 21 21 22 22 20 19 19 19 19 19 19 19 18 18 17 17 17 17 16 14 14 14 14 13 13 13 13 13 13 12 12 13 13 13
17 16 18 19 19 19 20 20 18 18 19 19 20 21 21 22 22 21 21 20 20 19 19 19 19 19 19 19 18 17 17 17 17 16 15 15 15 15 14 13 13 13 13 13 13 13 13 13 14
18 17 19 20 21 21 20 22 19 19 20 20 20 20 20 21 22 21 20 20 20 20 20 19 19 18 18 19 18 17 17 17 16 16 15 14 15 15 15 14 13 13 13 13 14 14 14 14 14
18 18 19 20 22 23 21 23 21 20 20 21 21 22 21 21 21 21 21 21 21 20 20 20 19 18 18 18 17 16 17 17 17 16 15 15 14 15 15 15 14 14 14 14 15 16 16 16 16
19 20 21 22 22 21 20 22 20 20 21 21 21 21 21 20 20 21 21 22 22 21 20 20 19 18 17 17 17 16 17 18 17 17 16 15 15 15 16 16 15 15 15 16 17 17 17 17 17
19 20 21 21 20 19 19 20 19 19 20 20 20 19 20 20 21 21 21 21 21 20 20 20 19 18 17 17 17 17 17 17 18 17 16 15 16 16 16 17 17 17 17 18 18 18 18 18 17
20 21 21 21 20 21 20 20 19 18 19 19 19 19 20 21 21 20 21 21 20 20 20 20 19 18 18 17 16 17 18 17 16 16 16 16 17 17 17 18 18 18 18 18 18 18 18 19 18
21 21 22 21 22 21 21 21 20 19 19 18 18 19 19 19 19 18 18 19 19 19 20 19 17 17 17 16 16 16 16 16 15 15 16 15 16 17 18 18 18 19 18 18 18 18 18 19 18
22 22 23 22 22 23 23 23 21 21 19 19 20 21 20 19 19 18 18 19 19 18 18 18 17 16 15 15 15 15 15 14 14 15 16 17 18 17 18 19 19 19 18 19 19 19 19 19 19
24 24 24 24 24 24 24 23 22 21 21 20 20 20 20 19 19 18 18 18 18 18 17 17 17 16 15 15 15 15 14 13 15 16 17 18 18 19 19 19 19 19 19 19 20 20 20 19 19
Wind_Direction
182 183 179 178 184 192 192 161 51 7 322 309 311 311 318 327 331 334 342 341 343 345 344 336 330 322 316 314 311 306 302 300 298 295 294 293 292 291 291 292 295 295 294 296 294 298 287 283 282
197 196 194 192 195 204 217 327 357 332 313 312 314 312 316 320 332 333 341 344 346 347 345 338 332 323 314 309 307 303 300 297 297 296 294 291 290 289 290 290 290 288 287 290 285 283 276 275 278
211 207 204 204 209 223 272 317 343 317 304 304 305 308 315 320 327 329 336 340 341 341 340 338 331 323 314 307 301 299 299 296 294 294 294 289 287 287 289 287 286 284 280 279 277 276 274 275 271
210 204 203 208 215 233 287 325 321 313 306 305 307 307 308 316 320 324 328 331 333 334 333 330 326 322 316 308 301 294 294 294 293 291 290 288 288 288 284 282 279 278 278 277 275 275 277 273 269
220 215 207 204 214 243 269 300 309 310 312 303 299 302 308 316 314 319 320 321 324 326 326 322 322 321 316 310 303 295 292 292 292 291 288 287 287 286 283 275 274 274 274 273 271 272 277 275 269
224 218 209 207 208 233 258 289 297 300 299 300 303 308 312 314 314 318 318 316 318 318 314 312 313 315 314 312 309 302 296 293 291 290 288 285 285 281 281 273 274 275 277 275 269 268 268 270 266
215 214 214 215 224 241 258 273 284 287 292 300 304 306 308 309 310 315 318 317 318 313 310 309 308 310 313 312 309 304 298 294 291 288 285 283 282 279 277 271 269 272 277 274 274 268 264 266 260
216 217 222 222 225 237 252 263 274 282 289 296 299 302 304 307 311 315 318 318 317 314 308 306 304 304 305 308 305 301 298 294 291 287 284 283 283 280 276 272 267 266 268 267 268 266 262 261 260
221 220 225 227 229 234 247 259 272 278 285 293 296 300 303 305 310 313 316 314 312 311 308 304 302 301 302 303 302 301 296 293 292 289 288 285 280 279 278 273 268 265 264 263 259 259 257 257 257
224 223 225 229 233 241 250 254 261 271 282 292 297 298 301 303 306 309 310 309 309 306 304 301 299 299 299 299 297 298 295 292 289 287 287 286 281 277 274 270 268 267 262 259 254 252 254 255 256
228 228 229 232 235 243 251 258 266 275 280 288 292 294 298 302 304 305 305 304 306 306 304 300 297 297 296 296 295 293 291 289 287 286 286 286 282 278 275 270 265 263 259 253 250 250 253 255 257
234 235 237 237 241 245 253 263 270 275 281 285 289 294 297 299 299 299 301 300 302 304 304 299 297 297 297 296 293 288 284 282 283 284 282 284 281 278 274 271 264 259 256 254 251 248 250 253 252
235 236 241 242 245 251 256 263 270 274 280 286 292 296 299 299 299 299 299 298 299 300 299 298 298 297 295 292 289 287 285 282 281 278 280 278 279 276 269 266 260 257 256 255 253 251 251 251 252
240 239 244 244 246 250 254 259 269 275 280 285 290 293 295 297 298 297 298 298 297 296 294 294 294 292 289 287 283 283 282 283 283 279 278 275 274 274 266 259 256 256 256 255 256 257 254 252 252
242 244 247 250 250 253 255 259 270 274 279 284 287 288 290 293 293 293 293 294 295 294 291 290 290 287 285 285 282 280 280 282 281 278 275 274 274 270 269 257 253 256 255 255 256 258 254 255 256
243 244 246 252 257 259 264 265 270 274 275 279 284 287 289 290 291 292 292 292 292 292 289 288 288 286 283 282 280 277 278 277 276 274 274 274 274 271 269 262 256 257 255 255 258 255 254 252 255
248 248 247 250 256 262 267 272 274 275 279 279 283 287 290 292 292 292 294 296 294 291 287 285 284 283 280 279 278 278 275 273 272 270 269 271 270 271 272 263 253 253 255 255 255 255 254 253 256
251 250 247 249 251 258 265 271 275 276 282 284 285 289 293 293 291 290 292 294 293 292 287 285 285 282 279 277 276 276 277 273 272 272 269 268 265 266 270 264 261 255 253 252 254 254 251 253 257
248 251 248 250 251 257 261 267 274 275 278 281 286 292 293 294 293 290 291 293 293 293 290 286 285 281 280 275 275 277 277 275 274 272 270 267 263 263 265 263 262 256 251 251 252 254 252 256 259
251 255 252 252 259 263 265 266 270 274 276 278 284 287 288 290 291 290 290 292 292 292 289 287 284 279 278 276 275 274 270 269 271 270 267 262 259 261 263 265 261 256 251 251 253 254 254 258 258
254 258 257 257 259 262 265 265 269 271 275 278 282 287 290 291 292 289 289 291 292 291 290 286 283 277 275 274 273 272 268 267 268 265 259 259 259 260 260 263 261 253 250 250 250 254 257 258 259
251 254 258 257 258 260 264 267 271 272 273 276 282 288 288 289 287 288 289 291 290 292 290 286 284 277 273 273 271 268 265 265 264 260 258 259 260 262 258 261 257 249 246 247 249 253 256 260 261
254 253 256 259 261 261 263 268 271 274 275 278 281 285 287 284 284 285 289 292 293 292 289 287 285 278 273 273 270 266 262 259 258 258 258 258 259 258 257 256 252 249 247 249 251 253 256 260 263
253 253 256 259 262 265 267 270 272 272 275 278 277 280 282 282 283 286 289 292 294 293 291 287 285 283 278 272 270 262 259 256 257 255 252 254 255 256 256 254 250 249 250 252 254 255 257 258 262
254 255 259 260 262 268 267 270 276 275 276 276 280 278 275 278 283 288 289 289 291 292 294 291 287 282 279 272 265 260 258 258 257 255 252 251 252 254 255 253 251 252 253 255 257 257 256 258 262
257 255 260 266 269 269 266 271 277 275 275 273 277 278 279 280 283 286 288 288 288 290 290 290 289 282 276 269 263 256 256 258 257 254 254 253 251 252 255 255 255 254 256 257 258 256 254 255 258
257 256 259 265 269 268 265 270 273 275 280 278 277 279 280 278 277 280 284 286 288 288 288 288 284 282 278 268 262 256 256 257 257 253 252 251 250 252 254 257 257 258 259 258 258 257 256 256 259
254 257 257 261 266 270 267 269 274 277 281 280 276 279 278 277 275 278 282 285 285 286 285 285 281 279 273 262 261 260 260 260 255 251 251 250 252 253 253 256 257 259 259 259 259 258 258 259 261
248 249 253 257 261 268 271 270 273 275 276 278 278 279 281 278 278 280 284 286 286 286 285 282 276 277 273 266 263 263 265 263 261 258 254 253 255 257 256 257 258 258 258 259 259 261 260 260 261
249 250 254 256 260 265 269 271 273 273 273 277 282 284 283 281 278 281 280 284 287 286 286 284 277 274 270 266 262 263 264 266 265 263 259 259 260 259 258 257 258 258 259 260 260 260 261 261 263
Height
5903 5904 5904 5905 5906 5906 5905 5905 5905 5906 5906 5906 5905 5905 5904 5905 5905 5905 5903 5900 5899 5898 5897 5896 5895 5895 5894 5894 5893 5893 5893 5892 5892 5891 5891 5890 5890 5889 5889 5888 5888 5887 5886 5886 5885 5884 5884 5883 5883
5902 5903 5904 5904 5905 5904 5905 5905 5905 5905 5905 5904 5904 5904 5904 5904 5903 5902 5900 5899 5898 5897 5896 5895 5895 5894 5894 5893 5892 5892 5891 5891 5890 5890 5889 5889 5889 5888 5888 5887 5887 5886 5886 5885 5884 5884 5884 5883 5883
5901 5902 5903 5903 5903 5904 5904 5903 5904 5904 5903 5903 5903 5903 5903 5903 5901 5900 5899 5898 5897 5896 5896 5895 5894 5893 5893 5892 5891 5891 5890 5890 5889 5889 5888 5888 5887 5887 5887 5886 5886 5886 5885 5885 5884 5884 5883 5883 5883
5900 5901 5902 5903 5902 5903 5903 5903 5902 5902 5902 5902 5902 5902 5902 5902 5901 5899 5898 5897 5897 5896 5895 5894 5893 5892 5891 5891 5890 5889 5889 5889 5888 5887 5887 5887 5886 5886 5885 5885 5885 5884 5884 5884 5883 5883 5883 5883 5882
5899 5900 5901 5901 5900 5901 5901 5901 5901 5901 5901 5901 5901 5901 5901 5901 5900 5899 5897 5896 5896 5895 5894 5893 5892 5891 5890 5889 5889 5888 5887 5887 5887 5886 5886 5885 5885 5885 5884 5884 5883 5883 5883 5883 5882 5882 5882 5882 5881
5899 5899 5899 5899 5899 5899 5899 5899 5899 5899 5899 5900 5900 5900 5899 5900 5899 5898 5896 5895 5894 5893 5892 5891 5891 5890 5889 5888 5887 5886 5886 5885 5885 5884 5884 5883 5883 5883 5883 5882 5882 5882 5882 5882 5881 5881 5881 5881 5881
5897 5898 5898 5898 5897 5897 5897 5897 5897 5898 5898 5898 5898 5898 5897 5897 5897 5896 5895 5894 5893 5891 5891 5890 5889 5888 5887 5887 5886 5885 5884 5883 5883 5882 5882 5881 5881 5881 5881 5881 5881 5881 5881 5880 5880 5880 5880 5880 5879
5895 5896 5896 5896 5896 5896 5896 5895 5896 5896 5896 5896 5896 5895 5895 5895 5894 5893 5893 5892 5891 5890 5889 5888 5887 5886 5885 5885 5883 5883 5882 5881 5880 5880 5879 5879 5879 5879 5879 5879 5879 5879 5879 5878 5879 5879 5878 5878 5878
5893 5895 5893 5893 5894 5893 5893 5894 5894 5894 5894 5894 5893 5893 5893 5892 5892 5891 5890 5890 5889 5888 5887 5886 5884 5884 5883 5882 5881 5881 5880 5879 5878 5877 5877 5877 5877 5877 5876 5877 5877 5877 5877 5877 5877 5877 5877 5877 5877
5890 5891 5891 5892 5892 5891 5891 5891 5892 5892 5892 5892 5891 5891 5890 5889 5888 5888 5888 5887 5886 5885 5884 5883 5882 5881 5880 5879 5879 5878 5877 5876 5875 5875 5874 5874 5874 5874 5874 5874 5875 5875 5875 5875 5875 5875 5875 5875 5875
5887 5888 5889 5888 5889 5889 5889 5889 5890 5889 5889 5889 5889 5888 5887 5886 5885 5885 5884 5884 5883 5881 5881 5880 5879 5878 5877 5876 5875 5875 5874 5873 5872 5872 5872 5872 5871 5871 5871 5871 5872 5872 5873 5873 5874 5874 5873 5873 5874
5884 5885 5885 5886 5886 5886 5886 5887 5887 5887 5887 5887 5886 5886 5885 5884 5883 5882 5881 5880 5880 5878 5877 5877 5876 5875 5874 5873 5872 5871 5871 5870 5870 5869 5869 5869 5869 5869 5869 5869 5869 5870 5871 5871 5871 5871 5871 5871 5872
5880 5881 5881 5882 5883 5883 5884 5884 5885 5884 5884 5884 5883 5882 5882 5881 5880 5879 5878 5877 5876 5875 5874 5873 5872 5872 5871 5870 5869 5868 5868 5867 5866 5867 5866 5866 5866 5866 5866 5866 5866 5867 5868 5868 5868 5869 5869 5869 5869
5878 5878 5878 5878 5879 5880 5880 5881 5881 5881 5881 5880 5880 5880 5879 5878 5877 5876 5875 5874 5873 5872 5870 5869 5869 5868 5868 5867 5866 5865 5865 5864 5864 5863 5863 5863 5863 5863 5863 5863 5863 5864 5864 5865 5865 5866 5867 5867 5867
5874 5875 5876 5876 5876 5877 5877 5878 5879 5878 5877 5877 5876 5876 5876 5875 5874 5873 5871 5871 5869 5868 5866 5865 5865 5864 5864 5863 5862 5862 5861 5860 5860 5860 5860 5860 5860 5859 5859 5859 5859 5860 5861 5861 5862 5863 5864 5864 5865
5872 5873 5873 5873 5873 5873 5875 5875 5875 5874 5873 5873 5873 5873 5872 5871 5870 5869 5868 5867 5865 5864 5862 5861 5860 5859 5859 5858 5858 5857 5857 5856 5856 5856 5857 5857 5857 5856 5856 5857 5857 5857 5858 5858 5859 5860 5860 5861 5862
5869 5869 5869 5870 5869 5869 5869 5870 5871 5870 5869 5869 5869 5868 5868 5867 5866 5865 5864 5862 5861 5859 5858 5856 5855 5855 5854 5854 5853 5853 5853 5853 5853 5853 5853 5854 5853 5853 5853 5853 5853 5854 5855 5855 5856 5857 5858 5859 5859
5865 5865 5865 5866 5866 5865 5865 5865 5866 5865 5865 5865 5865 5864 5863 5863 5862 5861 5860 5858 5856 5855 5853 5852 5851 5850 5849 5849 5848 5848 5848 5849 5848 5848 5849 5849 5849 5850 5850 5850 5850 5851 5852 5852 5853 5854 5855 5855 5856
5860 5860 5861 5862 5862 5861 5860 5861 5860 5860 5859 5860 5860 5860 5859 5858 5857 5856 5854 5853 5852 5850 5848 5847 5846 5845 5844 5844 5844 5844 5844 5844 5844 5844 5843 5844 5845 5846 5846 5846 5847 5847 5848 5849 5850 5851 5851 5852 5852
5856 5856 5857 5857 5857 5856 5857 5857 5857 5856 5856 5855 5855 5855 5854 5853 5852 5851 5850 5848 5847 5845 5844 5842 5841 5840 5840 5839 5839 5840 5840 5840 5840 5840 5840 5841 5841 5842 5843 5843 5843 5844 5845 5846 5846 5847 5848 5848 5849
5851 5852 5853 5853 5853 5852 5852 5853 5853 5852 5852 5851 5851 5850 5849 5848 5847 5846 5845 5843 5842 5841 5840 5838 5837 5836 5835 5834 5834 5834 5834 5835 5836 5836 5836 5837 5837 5838 5839 5839 5840 5841 5841 5842 5843 5843 5844 5845 5845
5847 5847 5848 5848 5848 5848 5848 5847 5848 5847 5847 5846 5846 5845 5844 5843 5842 5841 5839 5838 5837 5836 5835 5833 5832 5831 5830 5830 5829 5829 5829 5830 5831 5831 5832 5832 5833 5834 5835 5836 5836 5837 5838 5839 5839 5840 5840 5841 5841
5842 5843 5843 5843 5843 5843 5843 5842 5844 5843 5842 5842 5841 5840 5839 5838 5837 5836 5834 5833 5832 5831 5829 5828 5827 5826 5825 5825 5824 5824 5824 5825 5826 5827 5828 5828 5828 5829 5831 5832 5832 5833 5834 5834 5835 5836 5836 5836 5837
5837 5838 5838 5838 5838 5838 5839 5838 5838 5838 5838 5837 5836 5835 5834 5833 5832 5832 5830 5828 5827 5825 5824 5822 5822 5821 5820 5819 5819 5819 5820 5820 5821 5822 5823 5824 5824 5825 5826 5827 5828 5829 5830 5830 5831 5831 5831 5832 5832
5832 5833 5833 5833 5833 5833 5833 5832 5834 5833 5832 5831 5830 5829 5829 5828 5827 5825 5824 5823 5822 5821 5819 5817 5815 5816 5815 5815 5815 5815 5815 5815 5816 5817 5818 5819 5820 5821 5822 5823 5824 5825 5825 5826 5826 5826 5827 5827 5828
5827 5828 5829 5828 5828 5828 5828 5827 5828 5827 5825 5824 5824 5824 5823 5822 5820 5819 5818 5818 5817 5815 5814 5813 5811 5811 5810 5810 5810 5810 5810 5810 5811 5812 5813 5814 5815 5816 5817 5818 5819 5820 5820 5821 5821 5821 5822 5822 5823
5822 5822 5823 5823 5822 5822 5822 5822 5822 5821 5820 5819 5819 5818 5817 5816 5815 5814 5813 5812 5811 5810 5809 5807 5806 5805 5805 5805 5805 5805 5806 5805 5805 5807 5808 5809 5810 5811 5812 5813 5813 5814 5815 5815 5816 5816 5816 5817 5818
5817 5818 5818 5818 5817 5816 5817 5816 5817 5816 5815 5814 5813 5813 5811 5810 5808 5807 5807 5806 5805 5804 5803 5802 5801 5800 5799 5799 5799 5800 5801 5801 5801 5802 5803 5804 5805 5806 5807 5807 5808 5808 5809 5809 5810 5811 5811 5812 5812
5812 5812 5812 5812 5811 5811 5811 5813 5812 5811 5810 5809 5808 5807 5805 5804 5803 5802 5802 5800 5799 5799 5798 5797 5796 5796 5795 5795 5795 5796 5797 5797 5797 5797 5798 5799 5800 5800 5801 5802 5802 5803 5803 5804 5804 5805 5806 5806 5807
5806 5806 5807 5807 5806 5806 5805 5809 5807 5806 5805 5804 5803 5801 5799 5799 5798 5797 5796 5795 5794 5793 5793 5792 5791 5791 5790 5790 5791 5792 5792 5792 5793 5793 5793 5793 5794 5795 5795 5796 5796 5797 5797 5798 5798 5799 5799 5800 5800